Weather in Kamenka

Russia / Saratov Oblast     51°34′33″N   46°53′37″E
temp.,
°C
wind,
m/s
gust,
m/s
humid.,
%
clouds,
%
prec.,
mm/h
press.,
hPa
HPBL,
m
14 august, sun
sun1401:00+21ne34533 0.0 101852
04:00+19ne365630 0.0 1018105
07:00+19ne376123 0.0 1019179
10:00+25ene564596 0.0 1018561
13:00+29ene4432100 0.0 10181826
16:00+30ne4528100 0.0 10172173
19:00+27nne5841100 0.0 1016262
22:00+24ne61247100 0.0 1016309
15 august, mon
mon1501:00+22ene6125496 0.0 1017293
04:00+21ene6135948 0.0 1017311
07:00+20ene5115797 0.0 1019301
10:00+25ene793899 0.0 1019676
13:00+28ene673012 0.0 10191325
16:00+29ne67235 0.0 10181621
19:00+26ne59295 0.0 1018332
22:00+21ne410355 0.0 1019172
16 august, tue
tue1601:00+19ne614442 0.0 1019289
04:00+18ne613512 0.0 1019261
07:00+18ene611580 0.0 1019273
10:00+26e68375 0.0 1020677
13:00+31e77255 0.0 10192118
16:00+32e77225 0.0 10182456
19:00+29ene59282 0.0 1018235
22:00+23ene41035100 0.0 1019177
17 august, wed
wed1701:00+23e51436100 0.0 1019293
04:00+22ene61336100 0.0 1018285
07:00+21ne51043100 0.0 1019246
10:00+24ene61037100 0.0 1018462
13:00+30e81026100 0.0 1016986
16:00+30e682567 0.0 10161359
19:00+28e473010 0.0 1015197
22:00+24ene61338100 0.0 1015230
18 august, thu
thu1801:00+23ene61234100 0.0 1014250
04:00+21ene5103796 0.0 1014209
07:00+20ene5949100 0.3 1014156
10:00+27e5735100 0.3 1014407
13:00+35ese3521100 0.0 10131395
16:00+35se3419100 0.0 10122313
19:00+31sw3524100 0.0 1014105
22:00+29e71333100 0.1 1014461